STARLINK-34508, 64601

Orbit data source: Space-Track

STARLINK-34508, 64601 is a payload satellite owned by SpaceX/Seattle (US) in LEO that was launched on Wed, 25 Jun 2025 UTC via an FALCON 9 launch vehicle from the Air Force Eastern Test Range (AFETR). Payload-class satellites include a variety of spacecraft equipped with specific instruments for various scientific and technological missions. These include communications satellites like Starlink; space stations such as the ISS; scientific satellites like the Hubble; Earth observation satellites from companies like Planet Labs, Umbra, and HawkEye 360; GPS; miniature CubeSats for education and research; and military/defense satellites.

Loading next visibility...
Identifier
64601, 2025-137H
Orbit
LEO
Country
Flag of USUS
Related business
Manufacturer
SpaceX/Seattle
Mission
Operational Commercial Communications
Bus & Motor
STARLINK V2MO, Unknown motor
Mass
575 kg wet, ~530 kg dry
Launch date (UTC)
2025-06-25 (1 year ago)
Launch vehicle
FALCON 9
Launch site
Air Force Eastern Test Range (AFETR)
Object type
Payload
Rocket body
Debris
Shape & HBR
Box + 2 Pan, 17.7 m
Radar Cross Section
36.964 m², Large (>1 m²)

Expand to show TLE details & history
Last TLE update: 10 hours ago

TLE from 10 hours ago
0 STARLINK-34508
1 64601U 25137H   26171.41110394  .00018403  00000-0  63179-3 0  9990
2 64601  53.1567 217.9881 0000934  80.8992 279.2114 15.30206238 56461
Epoch: 2026-06-20T09:51Z
TLE epoch observation values (Epoch: 2026-06-20T09:51:59.380Z)
Latitude
-0.00005°
Longitude
161.36453°
Altitude
475.993 km
Speed
7.629 km/s
True Right ascension
14h 31m 57s
True Declination
0° 00' 00"
Sunlit
Object was in full shadow at epoch
Visualization orbit readout
Latitude
Unknown
Longitude
Unknown
Altitude
Unknown
Speed
Unknown
Apparent Right ascension
Unknown
Apparent Declination
Unknown
Sunlit
N/A
Visualization observer readout
Local Sidereal Time
07:12:10
Azimuth
Unknown
Elevation
Unknown
Doppler factor
Unknown
Orbital elements
Apogee altitude
476.094 km
Perigee altitude
474.813 km
Semi-major axis
6,853.59 km
Eccentricity
0.00009
Inclination
53.1567°
RAAN
217.9881°
Arg. of periapsis
80.8992°
True anomaly
279.20083°
Mean anomaly
279.2114°
Eccentric anomaly
279.20612°
Mean motion
3.8253 °/min
Orbital period
94.11 mins
BSTAR
0.00063179
Loading maneuver chart data...
Computing Atmospheric mass density...
Loading historical data...
Loading historical data...
Loading historical data...
Loading historical data...
Loading historical data...
Loading historical data...
Loading historical data...

Documentation

Showing up to 5 results
|